STARLINK-4108, 52834

Orbit data source: Space-Track

STARLINK-4108, 52834 is a payload satellite owned by SpaceX/Seattle (US) in LEO that was launched on Fri, 17 Jun 2022 UTC via an FALCON 9 launch vehicle from the Air Force Eastern Test Range (AFETR). Payload-class satellites include a variety of spacecraft equipped with specific instruments for various scientific and technological missions. These include communications satellites like Starlink; space stations such as the ISS; scientific satellites like the Hubble; Earth observation satellites from companies like Planet Labs, Umbra, and HawkEye 360; GPS; miniature CubeSats for education and research; and military/defense satellites.

Loading next visibility...
Identifier
52834, 2022-062E
Orbit
LEO
Country
Flag of USUS
Related business
Manufacturer
SpaceX/Seattle
Mission
Operational Commercial Communications
Bus & Motor
STARLINK, Unknown motor
Mass
297 kg wet, ~275 kg dry
Launch date (UTC)
2022-06-17 (3 years ago)
Launch vehicle
FALCON 9
Launch site
Air Force Eastern Test Range (AFETR)
Object type
Payload
Rocket body
Debris
Shape & HBR
Box + 1 Pan, 10.1 m
Radar Cross Section
13.562 m², Large (>1 m²)

Expand to show TLE details & history
Last TLE update: 17 hours ago

TLE from 17 hours ago
0 STARLINK-4108
1 52834U 22062E   25348.90762507  .00000370  00000-0  41327-4 0  9993
2 52834  53.2171  54.7234 0001193  99.3375 260.7752 15.08832770192987
Epoch: 2025-12-14T21:46Z
TLE epoch observation values (Epoch: 2025-12-14T21:46:58.806Z)
Latitude
-0.00001°
Longitude
4.16457°
Altitude
540.795 km
Speed
7.593 km/s
True Right ascension
03h 38m 53s
True Declination
0° 00' 00"
Sunlit
Object was in full shadow at epoch
Visualization orbit readout
Latitude
Unknown
Longitude
Unknown
Altitude
Unknown
Speed
Unknown
Apparent Right ascension
Unknown
Apparent Declination
Unknown
Sunlit
N/A
Visualization observer readout
Local Sidereal Time
13:19:56
Azimuth
Unknown
Elevation
Unknown
Doppler factor
Unknown
Orbital elements
Apogee altitude
540.836 km
Perigee altitude
539.185 km
Semi-major axis
6,918.147 km
Eccentricity
0.00012
Inclination
53.2171°
RAAN
54.7234°
Arg. of periapsis
99.3375°
True anomaly
260.76171°
Mean anomaly
260.7752°
Eccentric anomaly
260.76845°
Mean motion
3.77189 °/min
Orbital period
95.44 mins
BSTAR
0.000041327
Loading maneuver chart data...
Computing Atmospheric mass density...
Loading historical data...
Loading historical data...
Loading historical data...
Loading historical data...
Loading historical data...
Loading historical data...
Loading historical data...

Documentation

Showing up to 5 results
|